CZ-6A DEB, 61107

Orbit data source: Space-Track

CZ-6A DEB, 61107 is space debris in LEO originally from a launch on Tue, 06 Aug 2024 UTC launched from the Taiyaun Space Center, China (TSC). Debris objects in space refer to the collection of defunct objects orbiting the Earth. Examples of debris include non-operational satellites, rocket bodies, and fragments generated from explosions, collisions, or faulty payload assembly.

Loading next visibility...
Identifier
61107, 2024-140NZ
Orbit
LEO
Country
Flag of CNCN / PRC
Related business
Manufacturer
SAST
Mission
Spacecraft
Bus & Motor
Unknown
Mass
Unknown
Launch date (UTC)
2024-08-06 (2 years ago)
Launch vehicle
Unknown
Launch site
Taiyaun Space Center, China (TSC)
Object type
Payload
Rocket body
Debris
Shape & HBR
Unknown shape, 0.1 m
Radar Cross Section
Small (<0.1 m²)

Expand to show TLE details & history
Last TLE update: 1 day ago

TLE from 1 day ago
0 CZ-6A DEB
1 61107U 24140NZ  26129.45736986  .00001000  00000-0  54048-3 0  9999
2 61107  89.2113 296.1762 0099914 348.7201  11.1742 14.09432928 86979
Epoch: 2026-05-09T10:58Z
TLE epoch observation values (Epoch: 2026-05-09T10:58:36.755Z)
Latitude
-0.00012°
Longitude
-95.75148°
Altitude
793.403 km
Speed
7.493 km/s
True Right ascension
19h 44m 42s
True Declination
0° 00' 00"
Sunlit
Object was in daylight at epoch
Visualization orbit readout
Latitude
Unknown
Longitude
Unknown
Altitude
Unknown
Speed
Unknown
Apparent Right ascension
Unknown
Apparent Declination
Unknown
Sunlit
N/A
Visualization observer readout
Local Sidereal Time
21:24:47
Azimuth
Unknown
Elevation
Unknown
Doppler factor
Unknown
Orbital elements
Apogee altitude
930.58 km
Perigee altitude
785.976 km
Semi-major axis
7,236.415 km
Eccentricity
0.00999
Inclination
89.2113°
RAAN
296.1762°
Arg. of periapsis
348.7201°
True anomaly
11.39883°
Mean anomaly
11.1742°
Eccentric anomaly
11.28624°
Mean motion
3.5258 °/min
Orbital period
102.1 mins
BSTAR
0.00054048
Loading maneuver chart data...
Computing Atmospheric mass density...
Loading historical data...
Loading historical data...
Loading historical data...
Loading historical data...
Loading historical data...
Loading historical data...
Loading historical data...

Documentation

Showing up to 5 results
|